Regional Weather Roundup
Issued by NWS

Home | Current Version | Previous Version | Text Only | Print | Product List | Glossary On
Versions: 1 2 3 4 5 6 7 8 9 10 11 12 13 14 15 16 17 18 19 20 21 22 23 24 25 26 27 28 29 30 31 32 33 34 35 36 37 38 39 40 41 42 43 44 45 46 47 48 49 50
000
ASUS44 KOUN 301710
RWROK

WEATHER ROUNDUP FOR OKLAHOMA
NATIONAL WEATHER SERVICE NORMAN OK
1200 PM CDT THU MAR 30 2017

NOTE: "FAIR" INDICATES FEW OR NO CLOUDS BELOW 12,000 FEET WITH NO
      SIGNIFICANT WEATHER AND/OR OBSTRUCTIONS TO VISIBILITY.

OKZ001>007-009>012-014-015-017-301800-
NORTHWEST OKLAHOMA AND THE PANHANDLE

CITY           SKY/WX    TMP DP  RH WIND       PRES   REMARKS
GAGE           MOSUNNY   54  40  59 NW15G25   29.82S
GUYMON         CLOUDY   N/A N/A N/A MISG      29.84S
ENID/WOODRING  CLOUDY    50  43  76 MISG      29.76S
$$

OKZ016-021>023-033>039-044-045-301800-
SOUTHWEST OKLAHOMA

CITY           SKY/WX    TMP DP  RH WIND       PRES   REMARKS
LAWTON/REGL    SUNNY     60  41  49 NW14G21   29.81F
LAWTON/FT SILL SUNNY     60  44  55 NW17G24   29.80S
FREDERICK      SUNNY     61  45  55 W10G20    29.80F
CLINTON        SUNNY     57  42  57 NW17      29.82F
HOBART         SUNNY     61  43  51 N16       29.82F
ALTUS AFB      SUNNY     65  42  42 NW9G17    29.82F
$$

OKZ018>020-024>031-301800-
CENTRAL OKLAHOMA

CITY           SKY/WX    TMP DP  RH WIND       PRES   REMARKS
OKLAHOMA CITY  CLOUDY    54  40  59 NW25G33   29.78R
OKC/WILEY POST CLOUDY    53  43  68 NW17G25   29.78S
OKC/TINKER AFB PTSUNNY   53  40  61 NW24G31   29.75S
STILLWATER     CLOUDY    50  39  66 NW17G25   29.75S
GUTHRIE        CLOUDY    50  40  68 NW20G29   29.77S
$$

OKZ008-013-054>072-301800-
NORTHEAST OKLAHOMA

CITY           SKY/WX    TMP DP  RH WIND       PRES   REMARKS
TULSA          CLOUDY    50  41  71 W24G31    29.69F
TULSA/JONES    CLOUDY    51  40  65 NW15G25   29.70F
PONCA CITY     CLOUDY    46  39  76 NW16G25   29.74R
BARTLESVILLE   CLOUDY    47  42  83 W13G21    29.70S
MUSKOGEE       CLOUDY    51  41  68 W17       29.74R
$$

OKZ032-040>043-046>053-073>077-301800-
SOUTH CENTRAL/SOUTHEAST OKLAHOMA

CITY           SKY/WX    TMP DP  RH WIND       PRES   REMARKS
ARDMORE/DWNTWN SUNNY     61  39  44 N5        29.79S
MCALESTER      CLOUDY    54  40  59 W10       29.76S
$$




USA.gov is the U.S. government's official web portal to all federal, state and local government web resources and services.